When you browse on this site, cookies collect data to enhance your experience and personalize the content and advertising you see.
Visit our Privacy Policy to learn more. By continuing to use the site, you agree to this use of cookies and data.
  • In Latvia
  • List of Countries
  • For 7 days
  • Water Temperature
  • Satellite Maps
  • Weather Map
  • Weather Widgets
  • user-avatar
    Login

    Hourly Weather Oran

    Today, 21 May, Tuesday

    Time Temperature Precipitation Wind Pressure Humidity
    00:00 +19°C° 0 mm 0 mps 749 mmHg 63%
    01:00 +18°C° 0 mm 0 mps 749 mmHg 64%
    02:00 +18°C° 0 mm 0 mps 749 mmHg 66%
    03:00 +19°C° 0 mm 1 mps 749 mmHg 67%
    04:00 +20°C° 0 mm 1 mps 749 mmHg 65%
    05:00 +20°C° 0 mm 1 mps 749 mmHg 63%
    06:00 +21°C° 0 mm 1 mps 749 mmHg 61%
    07:00 +22°C° 0 mm 1 mps 750 mmHg 55%
    08:00 +23°C° 0 mm 2 mps 750 mmHg 48%
    09:00 +24°C° 0 mm 2 mps 750 mmHg 42%
    10:00 +25°C° 0 mm 2 mps 750 mmHg 40%
    11:00 +26°C° 0 mm 3 mps 750 mmHg 38%
    12:00 +27°C° 0 mm 3 mps 751 mmHg 36%
    13:00 +27°C° 0 mm 3 mps 750 mmHg 37%
    14:00 +27°C° 0 mm 4 mps 750 mmHg 38%
    15:00 +27°C° 0 mm 4 mps 750 mmHg 38%
    16:00 +26°C° 0 mm 3 mps 750 mmHg 41%
    17:00 +25°C° 0 mm 3 mps 750 mmHg 43%
    18:00 +25°C° 0 mm 2 mps 750 mmHg 45%
    19:00 +24°C° 0 mm 2 mps 751 mmHg 48%
    20:00 +23°C° 0 mm 1 mps 751 mmHg 52%
    21:00 +22°C° 0 mm 1 mps 752 mmHg 55%
    22:00 +22°C° 0 mm 1 mps 752 mmHg 57%
    23:00 +21°C° 0 mm 1 mps 752 mmHg 60%

    Tomorrow, 22 May, Wednesday

    Time Temperature Precipitation Wind Pressure Humidity
    00:00 +21°C° 0 mm 1 mps 752 mmHg 62%
    01:00 +20°C° 0 mm 1 mps 752 mmHg 64%
    02:00 +18°C° 0 mm 0 mps 752 mmHg 67%
    03:00 +17°C° 0 mm 0 mps 752 mmHg 69%
    04:00 +18°C° 0 mm 0 mps 752 mmHg 67%
    05:00 +18°C° 0 mm 0 mps 752 mmHg 65%
    06:00 +19°C° 0 mm 0 mps 752 mmHg 64%
    07:00 +22°C° 0 mm 1 mps 752 mmHg 58%
    08:00 +23°C° 0 mm 1 mps 753 mmHg 52%
    09:00 +24°C° 0 mm 1 mps 753 mmHg 47%
    10:00 +25°C° 0 mm 2 mps 753 mmHg 43%
    11:00 +26°C° 0 mm 3 mps 753 mmHg 39%
    12:00 +27°C° 0 mm 4 mps 753 mmHg 36%
    13:00 +28°C° 0 mm 5 mps 753 mmHg 36%
    14:00 +28°C° 0 mm 5 mps 752 mmHg 35%
    15:00 +28°C° 0 mm 6 mps 752 mmHg 35%
    16:00 +27°C° 0 mm 5 mps 752 mmHg 38%
    17:00 +26°C° 0 mm 5 mps 752 mmHg 41%
    18:00 +25°C° 0 mm 5 mps 752 mmHg 43%
    19:00 +23°C° 0 mm 4 mps 752 mmHg 46%
    20:00 +23°C° 0 mm 4 mps 753 mmHg 49%
    21:00 +22°C° 0 mm 3 mps 753 mmHg 52%
    22:00 +21°C° 0 mm 3 mps 753 mmHg 53%
    23:00 +21°C° 0 mm 2 mps 753 mmHg 54%

    Day after tomorrow, 23 May, Thursday

    Time Temperature Precipitation Wind Pressure Humidity
    00:00 +21°C° 0 mm 2 mps 753 mmHg 55%
    01:00 +21°C° 0 mm 1 mps 753 mmHg 55%
    02:00 +21°C° 0 mm 1 mps 753 mmHg 56%
    03:00 +21°C° 0 mm 1 mps 752 mmHg 56%
    04:00 +21°C° 0 mm 1 mps 752 mmHg 54%
    05:00 +22°C° 0 mm 1 mps 753 mmHg 53%
    06:00 +21°C° 0 mm 2 mps 753 mmHg 51%
    07:00 +24°C° 0 mm 2 mps 753 mmHg 46%
    08:00 +26°C° 0 mm 3 mps 753 mmHg 40%
    09:00 +27°C° 0 mm 3 mps 753 mmHg 34%
    10:00 +28°C° 0 mm 4 mps 753 mmHg 31%
    11:00 +29°C° 0 mm 4 mps 753 mmHg 28%
    12:00 +32°C° 0 mm 5 mps 752 mmHg 26%
    13:00 +32°C° 0 mm 5 mps 752 mmHg 26%
    14:00 +32°C° 0 mm 6 mps 751 mmHg 26%
    15:00 +32°C° 0 mm 6 mps 751 mmHg 27%
    16:00 +30°C° 0 mm 6 mps 751 mmHg 29%
    17:00 +29°C° 0 mm 5 mps 751 mmHg 31%
    18:00 +28°C° 0 mm 5 mps 750 mmHg 33%
    19:00 +27°C° 0 mm 4 mps 751 mmHg 36%
    20:00 +26°C° 0 mm 3 mps 751 mmHg 39%
    21:00 +24°C° 0 mm 2 mps 752 mmHg 42%
    22:00 +24°C° 0 mm 1 mps 751 mmHg 42%
    23:00 +24°C° 0 mm 1 mps 751 mmHg 43%

    24 May, Friday

    Time Temperature Precipitation Wind Pressure Humidity
    00:00 +21°C° 0 mm 0 mps 751 mmHg 43%
    01:00 +23°C° 0 mm 1 mps 751 mmHg 45%
    02:00 +22°C° 0 mm 1 mps 750 mmHg 46%
    03:00 +21°C° 0 mm 2 mps 750 mmHg 47%
    04:00 +21°C° 0 mm 2 mps 750 mmHg 48%
    05:00 +21°C° 0 mm 2 mps 750 mmHg 49%
    06:00 +21°C° 0 mm 2 mps 750 mmHg 50%
    07:00 +24°C° 0 mm 2 mps 750 mmHg 46%
    08:00 +25°C° 0 mm 2 mps 751 mmHg 42%
    09:00 +27°C° 0 mm 2 mps 751 mmHg 37%
    10:00 +28°C° 0 mm 2 mps 751 mmHg 35%
    11:00 +29°C° 0 mm 3 mps 751 mmHg 32%
    12:00 +30°C° 0 mm 4 mps 751 mmHg 30%
    13:00 +30°C° 0 mm 4 mps 751 mmHg 30%
    14:00 +29°C° 0 mm 4 mps 750 mmHg 30%
    15:00 +29°C° 0 mm 5 mps 750 mmHg 30%
    16:00 +28°C° 0 mm 4 mps 750 mmHg 32%
    17:00 +28°C° 0 mm 4 mps 750 mmHg 33%
    18:00 +27°C° 0 mm 4 mps 750 mmHg 35%
    19:00 +26°C° 0 mm 3 mps 750 mmHg 40%
    20:00 +25°C° 0 mm 3 mps 751 mmHg 46%
    21:00 +22°C° 0 mm 3 mps 751 mmHg 52%
    22:00 +22°C° 0 mm 3 mps 751 mmHg 55%
    23:00 +21°C° 0 mm 2 mps 751 mmHg 59%

    25 May, Saturday

    Time Temperature Precipitation Wind Pressure Humidity
    00:00 +22°C° 0 mm 1 mps 751 mmHg 63%
    01:00 +21°C° 0 mm 1 mps 751 mmHg 64%
    02:00 +21°C° 0 mm 1 mps 751 mmHg 64%
    03:00 +21°C° 0 mm 1 mps 750 mmHg 65%
    04:00 +21°C° 0 mm 1 mps 750 mmHg 65%
    05:00 +21°C° 0 mm 1 mps 751 mmHg 65%
    06:00 +21°C° 0 mm 1 mps 751 mmHg 64%
    07:00 +23°C° 0 mm 2 mps 751 mmHg 58%
    08:00 +24°C° 0 mm 2 mps 751 mmHg 53%
    09:00 +25°C° 0 mm 2 mps 752 mmHg 47%
    10:00 +26°C° 0 mm 3 mps 751 mmHg 43%
    11:00 +27°C° 0 mm 3 mps 751 mmHg 39%
    12:00 +28°C° 0 mm 4 mps 751 mmHg 36%
    13:00 +28°C° 0 mm 4 mps 751 mmHg 36%
    14:00 +28°C° 0 mm 4 mps 751 mmHg 36%
    15:00 +28°C° 0 mm 4 mps 750 mmHg 36%
    16:00 +27°C° 0 mm 4 mps 751 mmHg 37%
    17:00 +27°C° 0 mm 4 mps 751 mmHg 38%
    18:00 +26°C° 0 mm 4 mps 751 mmHg 39%
    19:00 +25°C° 0 mm 3 mps 752 mmHg 42%
    20:00 +24°C° 0 mm 3 mps 752 mmHg 44%
    21:00 +24°C° 0 mm 3 mps 753 mmHg 46%
    22:00 +23°C° 0 mm 2 mps 753 mmHg 47%
    23:00 +23°C° 0 mm 2 mps 753 mmHg 47%

    26 May, Sunday

    Time Temperature Precipitation Wind Pressure Humidity
    00:00 +22°C° 0 mm 1 mps 752 mmHg 48%
    01:00 +21°C° 0 mm 2 mps 752 mmHg 50%
    02:00 +21°C° 0 mm 2 mps 752 mmHg 52%
    03:00 +20°C° 0 mm 3 mps 752 mmHg 54%
    04:00 +20°C° 0 mm 3 mps 752 mmHg 56%
    05:00 +20°C° 0 mm 3 mps 752 mmHg 59%
    06:00 +20°C° 0 mm 3 mps 753 mmHg 61%
    07:00 +21°C° 0 mm 3 mps 753 mmHg 56%
    08:00 +22°C° 0 mm 3 mps 753 mmHg 50%
    09:00 +25°C° 0 mm 3 mps 753 mmHg 45%
    10:00 +26°C° 0 mm 3 mps 753 mmHg 42%
    11:00 +27°C° 0 mm 4 mps 753 mmHg 39%
    12:00 +27°C° 0 mm 5 mps 753 mmHg 36%
    13:00 +28°C° 0 mm 5 mps 753 mmHg 37%
    14:00 +28°C° 0 mm 6 mps 752 mmHg 38%
    15:00 +28°C° 0 mm 6 mps 752 mmHg 39%
    16:00 +27°C° 0 mm 6 mps 752 mmHg 42%
    17:00 +26°C° 0 mm 6 mps 752 mmHg 44%
    18:00 +24°C° 0 mm 6 mps 752 mmHg 46%
    19:00 +25°C° 0 mm 5 mps 752 mmHg 47%
    20:00 +23°C° 0 mm 4 mps 753 mmHg 48%
    21:00 +23°C° 0 mm 4 mps 753 mmHg 49%
    22:00 +22°C° 0 mm 3 mps 753 mmHg 50%
    23:00 +22°C° 0 mm 3 mps 753 mmHg 50%
    Show more